Hourly Data Report for October 18, 2014

All times are specified in Local Standard Time (LST). Add 1 hour to adjust for Daylight Saving Time where and when it is observed.

HALL BEACH A
NUNAVUT

68°46'33.000" N
81°14'33.000" W
9.10 m
2402354
71293
YUX

Download Data

Hourly Data (October 2014)
Hourly Data Report for October 18, 2014
Temp Definition
°C
Dew Point Temp Definition
°C
Rel Hum Definition
%
Wind Dir Definition
10's deg

Wind Spd Definition
km/h
Visibility Definition
km
Stn Press Definition
kPa
Hmdx Definition


Wind Chill Definition


Weather Definition


TIME
00:00 Legend Double Dagger -15.2 -16.9 87 31 22 16.1 102.08   -25 LegendNANA
01:00 Legend Double Dagger -16.8 -18.6 86 30 22 16.1 102.07   -27 LegendNANA
02:00 Legend Double Dagger -16.9 -18.6 87 32 28 16.1 102.04   -28 LegendNANA
03:00 Legend Double Dagger -16.9 -18.3 89 32 28 16.1 102.03   -28 LegendNANA
04:00 Legend Double Dagger -15.8 -17.0 91 32 24 16.1 102.04   -26 LegendNANA
05:00 Legend Double Dagger -12.2 -13.1 93 33 17 16.1 102.04   -20 LegendNANA
06:00 Legend Double Dagger -8.2 -9.6 90 34 24 16.1 102.01   -16 LegendNANA
07:00 Legend Double Dagger -7.8 -9.2 90 34 22 16.1 101.98   -15 LegendNANA
08:00 Legend Double Dagger -8.6 -10.0 90 33 22 16.1 101.94   -16 LegendNANA
09:00 Legend Double Dagger -12.7 -14.0 90 30 18 16.1 101.92   -21 LegendNANA
10:00 Legend Double Dagger -12.4 -13.7 90 30 18 16.1 101.88   -20 LegendNANA
11:00 Legend Double Dagger -10.7 -11.6 93 31 18 16.1 101.87   -18 LegendNANA
12:00 Legend Double Dagger -12.2 -13.8 88 30 18 16.1 101.84   -20 LegendNANA
13:00 Legend Double Dagger -11.5 -12.0 96 29 17 0.6 101.83   -19 Freezing Fog
14:00 Legend Double Dagger -10.0 -10.8 94 32 8 16.1 101.82   -14 LegendNANA
15:00 Legend Double Dagger -9.9 -10.7 94 31 15 4.8 101.81   -17 Fog
16:00 Legend Double Dagger -12.8 -13.7 93 30 9 0.4 101.77   -18 Freezing Fog
17:00 Legend Double Dagger -13.0 -14.0 92 25 11 1.0 101.77   -19 Fog
18:00 Legend Double Dagger -17.1 -18.5 89 25 13 11.3 101.77   -25 LegendNANA
19:00 Legend Double Dagger -17.3 -18.7 89 27 13 16.1 101.73   -25 LegendNANA
20:00 Legend Double Dagger -18.2 -19.7 88 27 8 11.3 101.67   -24 LegendNANA
21:00 Legend Double Dagger -17.4 -18.9 88 26 8 11.3 101.62   -23 LegendNANA
22:00 Legend Double Dagger -17.3 -18.7 89 27 9 1.6 101.60   -24 Fog
23:00 Legend Double Dagger -12.8 -13.8 92 LegendMM 4 2.4 101.55   -15 Fog

Notes on Data Quality.

Legend

  • E = Estimated
  • M = Missing
  • NA = Not Available
  • ‡ = Partner data that is not subject to review by the National Climate Archives
Date modified: